Terminal Aerodrome Forecast
Issued by NWS Portland, ME

Home | Current Version | Previous Version | Text Only | Print | Product List | Glossary On
Versions: 1 2 3 4 5 6 7 8 9 10 11 12 13 14 15 16 17 18
000
FTUS41 KGYX 312328
TAFCON
TAF
KCON 312328Z 0100/0124 31005KT P6SM FEW080
     FM010100 00000KT P6SM SKC
     FM011300 03005KT P6SM SKC
     FM011700 12007KT P6SM FEW080=

USA.gov is the U.S. government's official web portal to all federal, state and local government web resources and services.